Weather History for Southend-On-Sea, United Kingdom

Change the Weather History Date:

Tuesday, January 21, 2014

  Actual Average Record
Temperature  
Mean Temperature 37 °F -  
Max Temperature 46 °F 45 °F 55 °F (2002)
Min Temperature 28 °F 36 °F 28 °F (1998)
Degree Days  
Heating Degree Days 28    
Moisture  
Dew Point 35 °F    
Average Humidity 89    
Maximum Humidity 100    
Minimum Humidity 71    
Precipitation  
Precipitation 0.00 in - - ()
Sea Level Pressure  
Sea Level Pressure 29.83 in    
Wind  
Wind Speed 4 mph ()    
Max Wind Speed 17 mph    
Max Gust Speed -    
Visibility 3.1 miles    
Events Fog    
Averages and records for this station are not official NWS values.
T = Trace of Precipitation, MM = Missing Value Source: Averaged Metar Reports

Daily Weather History Graph

Daily Weather History Graph

Search for Another Location

Airport:

Trip Planner

Search our weather history database for the weather conditions in past years. The results will help you decide how hot, cold, wet, or windy it might be!

Date:

Astronomy

Jan. 21, 2014 Rise Set
Actual Time 7:50 AM GMT 4:26 PM GMT
Civil Twilight 7:12 AM GMT 5:04 PM GMT
Nautical Twilight 6:31 AM GMT 5:46 PM GMT
Astronomical Twilight 5:51 AM GMT 6:25 PM GMT
Moon 10:28 PM GMT (1/21) 9:33 AM GMT (1/21)
Length of Visible Light 9h 51m
Length of Day
8h 36m
Waning Gibbous, 76% of the Moon is Illuminated
Jan 21
Waning Gibbous
Jan 24
Last Quarter
Jan 30
New
Feb 6
First Quarter
Feb 14
Full

Hourly Weather History & Observations

Time (GMT) Temp. Windchill Dew Point Humidity Pressure Visibility Wind Dir Wind Speed Gust Speed Precip Events Conditions
12:20 AM 30.2 °F - 30.2 °F 100% 29.86 in 0.6 mi West 2.3 mph - N/A Fog Fog
12:50 AM 28.4 °F - 28.4 °F 100% 29.86 in 0.1 mi WNW 2.3 mph - N/A Fog Light Freezing Fog
1:50 AM 30.2 °F - 28.4 °F 93% 29.86 in 0.1 mi West 2.3 mph - N/A Fog Light Freezing Fog
2:50 AM 30.2 °F - 28.4 °F 93% 29.89 in 1.9 mi WSW 2.3 mph - N/A Fog Patches of Fog
3:50 AM 28.4 °F - 28.4 °F 100% 29.89 in 0.1 mi Calm Calm - N/A Fog Fog
4:50 AM 28.4 °F - 26.6 °F 93% 29.89 in 0.1 mi Calm Calm - N/A Fog Light Freezing Fog
5:50 AM 30.2 °F - 28.4 °F 93% 29.86 in 0.2 mi Calm Calm - N/A Fog Light Freezing Fog
6:20 AM 30.2 °F 26.7 °F 28.4 °F 93% 29.86 in 0.1 mi SSW 3.5 mph - N/A Fog Light Freezing Fog
6:50 AM 30.2 °F - 30.2 °F 100% 29.86 in 0.1 mi Calm Calm - N/A Fog Light Freezing Fog
7:20 AM 30.2 °F - 30.2 °F 100% 29.86 in 0.1 mi Calm Calm - N/A Fog Light Freezing Fog
7:50 AM 32.0 °F - 30.2 °F 93% 29.89 in 0.1 mi Calm Calm - N/A Fog Light Freezing Fog
8:20 AM 32.0 °F - 32.0 °F 100% 29.86 in 0.1 mi Calm Calm - N/A Fog Light Freezing Fog
8:50 AM 33.8 °F - 32.0 °F 93% 29.89 in 0.1 mi Calm Calm - N/A Fog Fog
9:20 AM 33.8 °F - 32.0 °F 93% 29.89 in 0.6 mi Calm Calm - N/A Fog Shallow Fog
9:50 AM 37.4 °F 33.8 °F 35.6 °F 93% 29.89 in 0.1 mi SSW 4.6 mph - N/A Fog Fog
10:20 AM 37.4 °F 33.8 °F 37.4 °F 100% 29.89 in 0.1 mi SSW 4.6 mph - N/A Fog Fog
10:50 AM 37.4 °F 32.1 °F 35.6 °F 93% 29.89 in 0.1 mi SSW 6.9 mph - N/A Fog Fog
11:50 AM 37.4 °F 32.8 °F 37.4 °F 100% 29.86 in 0.1 mi SSW 5.8 mph - N/A Fog Fog
12:20 PM 39.2 °F 35.9 °F 37.4 °F 93% 29.86 in 1.2 mi South 4.6 mph - N/A   Mostly Cloudy
12:50 PM 41.0 °F - 39.2 °F 93% 29.83 in 3.7 mi Variable 2.3 mph - N/A   Scattered Clouds
1:20 PM 44.6 °F 43.1 °F 42.8 °F 93% 29.83 in 6.2 mi ESE 3.5 mph - N/A   Partly Cloudy
1:50 PM 46.4 °F 43.5 °F 39.2 °F 76% 29.83 in - SSE 5.8 mph - N/A   Clear
2:20 PM 44.6 °F 41.4 °F 39.2 °F 81% 29.83 in 6.2 mi SE 5.8 mph - N/A   Scattered Clouds
2:50 PM 46.4 °F 43.5 °F 37.4 °F 71% 29.83 in 6.2 mi SSE 5.8 mph - N/A   Partly Cloudy
3:20 PM 44.6 °F 39.2 °F 39.2 °F 81% 29.80 in 6.2 mi South 10.4 mph - N/A   Partly Cloudy
3:50 PM 44.6 °F 39.7 °F 39.2 °F 81% 29.80 in 6.2 mi South 9.2 mph - N/A   Partly Cloudy
4:20 PM 42.8 °F 37.0 °F 39.2 °F 87% 29.80 in 6.2 mi South 10.4 mph - N/A   Partly Cloudy
4:50 PM 44.6 °F 38.8 °F 39.2 °F 81% 29.80 in 6.2 mi South 11.5 mph - N/A   Partly Cloudy
5:20 PM 42.8 °F 36.6 °F 37.4 °F 81% 29.80 in 6.2 mi South 11.5 mph - N/A   Partly Cloudy
5:50 PM 42.8 °F 37.5 °F 39.2 °F 87% 29.80 in 6.2 mi SSE 9.2 mph - N/A   Partly Cloudy
6:20 PM 42.8 °F 37.5 °F 39.2 °F 87% 29.80 in 6.2 mi SSE 9.2 mph - N/A   Partly Cloudy
6:50 PM 41.0 °F 34.7 °F 37.4 °F 87% 29.80 in 6.2 mi SSE 10.4 mph - N/A   Partly Cloudy
7:20 PM 41.0 °F 34.3 °F 37.4 °F 87% 29.80 in 6.2 mi SSE 11.5 mph - N/A   Partly Cloudy
7:50 PM 41.0 °F 34.3 °F 37.4 °F 87% 29.80 in 6.2 mi SSE 11.5 mph - N/A   Partly Cloudy
8:20 PM 42.8 °F 36.6 °F 37.4 °F 81% 29.80 in - SSE 11.5 mph - N/A   Clear
8:50 PM 42.8 °F 35.8 °F 37.4 °F 81% 29.77 in - SSE 13.8 mph - N/A   Clear
9:20 PM 42.8 °F 35.1 °F 37.4 °F 81% 29.77 in - SSE 16.1 mph - N/A   Clear
9:50 PM 42.8 °F 34.8 °F 37.4 °F 81% 29.77 in - SSE 17.3 mph - N/A   Clear
10:20 PM 41.0 °F 33.1 °F 35.6 °F 81% 29.77 in 6.2 mi SSE 15.0 mph - N/A   Scattered Clouds
10:50 PM 42.8 °F 35.8 °F 37.4 °F 81% 29.77 in 6.2 mi SSE 13.8 mph - N/A   Mostly Cloudy
11:20 PM 41.0 °F 33.9 °F 37.4 °F 87% 29.77 in 6.2 mi SSE 12.7 mph - N/A   Mostly Cloudy
11:50 PM 42.8 °F 35.4 °F 37.4 °F 81% 29.74 in 6.2 mi SSE 15.0 mph - N/A   Partly Cloudy